Location: Central Falls
(41.8900°N, 71.3929°W)
Time: 23:47:09
(UTC+00:00)

S-56A Canister/Altair - Pass Details

Date: 12 December 2023
Orbit: 640 x 2488 km, 38.9° (Epoch: 27 February)

Event Time Altitude Azimuth Distance (km) Brightness Sun altitude
Rises 11:27:06 0° 195° (SSW) 4,756 11.7 -6.9°
Reaches altitude 10° 11:32:59 10° 169° (S) 3,285 11.3 -5.9°
Maximum altitude 11:35:52 12° 148° (SSE) 2,870 11.5 -5.4°
Drops below altitude 10° 11:38:27 10° 125° (SE) 2,829 12.2 -5.0°
Sets 11:42:34 0° 96° (E) 3,452 12.4 -4.3°
